• In Uzbekistan
  • List of Countries
  • For 7 days
  • Water Temperature
  • Satellite Maps
  • Weather Map
  • Weather Widgets
  • user-avatar
    Login

    Hourly Weather San Juan

    Today, 19 January, Thursday

    Time Temperature Precipitation Wind Pressure Humidity
    00:00 +28°C° 0 mm 1 mps 704 mmHg 39%
    01:00 +27°C° 0 mm 1 mps 704 mmHg 41%
    02:00 +27°C° 0 mm 1 mps 704 mmHg 42%
    03:00 +26°C° 0 mm 1 mps 704 mmHg 43%
    04:00 +26°C° 0 mm 1 mps 704 mmHg 43%
    05:00 +28°C° 0 mm 1 mps 704 mmHg 39%
    06:00 +29°C° 0 mm 1 mps 705 mmHg 35%
    07:00 +31°C° 0 mm 1 mps 705 mmHg 30%
    08:00 +33°C° 0 mm 1 mps 705 mmHg 28%
    09:00 +34°C° 0 mm 1 mps 705 mmHg 26%
    10:00 +37°C° 0 mm 2 mps 705 mmHg 24%
    11:00 +38°C° 0 mm 2 mps 705 mmHg 22%
    12:00 +39°C° 0 mm 2 mps 705 mmHg 21%
    13:00 +40°C° 0 mm 3 mps 704 mmHg 20%
    14:00 +40°C° 0 mm 3 mps 704 mmHg 19%
    15:00 +40°C° 0 mm 3 mps 704 mmHg 19%
    16:00 +42°C° 0 mm 3 mps 704 mmHg 19%
    17:00 +39°C° 0.1 mm 3 mps 704 mmHg 21%
    18:00 +37°C° 0.1 mm 3 mps 705 mmHg 24%
    19:00 +35°C° 0.1 mm 3 mps 705 mmHg 27%
    20:00 +34°C° 0 mm 3 mps 706 mmHg 29%
    21:00 +33°C° 0 mm 3 mps 706 mmHg 31%
    22:00 +33°C° 0 mm 3 mps 707 mmHg 33%
    23:00 +31°C° 0 mm 3 mps 707 mmHg 34%

    Tomorrow, 20 January, Friday

    Time Temperature Precipitation Wind Pressure Humidity
    00:00 +31°C° 0 mm 3 mps 707 mmHg 35%
    01:00 +30°C° 0 mm 3 mps 707 mmHg 36%
    02:00 +29°C° 0 mm 3 mps 707 mmHg 37%
    03:00 +29°C° 0 mm 2 mps 706 mmHg 38%
    04:00 +28°C° 0 mm 2 mps 706 mmHg 39%
    05:00 +30°C° 0 mm 2 mps 707 mmHg 36%
    06:00 +31°C° 0 mm 2 mps 708 mmHg 33%
    07:00 +34°C° 0 mm 2 mps 708 mmHg 29%
    08:00 +35°C° 0 mm 2 mps 708 mmHg 27%
    09:00 +36°C° 0 mm 1 mps 708 mmHg 25%
    10:00 +37°C° 0 mm 1 mps 708 mmHg 23%
    11:00 +39°C° 0 mm 2 mps 707 mmHg 22%
    12:00 +40°C° 0 mm 2 mps 707 mmHg 20%
    13:00 +42°C° 0 mm 3 mps 706 mmHg 19%
    14:00 +42°C° 0 mm 3 mps 706 mmHg 19%
    15:00 +42°C° 0 mm 4 mps 705 mmHg 19%
    16:00 +42°C° 0 mm 4 mps 705 mmHg 18%
    17:00 +41°C° 0 mm 4 mps 705 mmHg 21%
    18:00 +39°C° 0 mm 5 mps 706 mmHg 23%
    19:00 +36°C° 0 mm 5 mps 706 mmHg 26%
    20:00 +35°C° 0.1 mm 5 mps 706 mmHg 27%
    21:00 +34°C° 0.1 mm 5 mps 707 mmHg 28%
    22:00 +33°C° 0.1 mm 5 mps 707 mmHg 29%
    23:00 +33°C° 0.1 mm 4 mps 707 mmHg 30%

    Day after tomorrow, 21 January, Saturday

    Time Temperature Precipitation Wind Pressure Humidity
    00:00 +32°C° 0.1 mm 4 mps 707 mmHg 31%
    01:00 +30°C° 0.1 mm 3 mps 707 mmHg 32%
    02:00 +30°C° 0 mm 3 mps 706 mmHg 33%
    03:00 +29°C° 0 mm 3 mps 706 mmHg 33%
    04:00 +28°C° 0 mm 3 mps 706 mmHg 34%
    05:00 +30°C° 0 mm 3 mps 707 mmHg 32%
    06:00 +31°C° 0 mm 3 mps 707 mmHg 29%
    07:00 +34°C° 0 mm 3 mps 708 mmHg 26%
    08:00 +35°C° 0 mm 3 mps 707 mmHg 25%
    09:00 +37°C° 0 mm 3 mps 707 mmHg 23%
    10:00 +38°C° 0 mm 2 mps 707 mmHg 21%
    11:00 +39°C° 0 mm 3 mps 706 mmHg 20%
    12:00 +40°C° 0 mm 3 mps 706 mmHg 19%
    13:00 +42°C° 0 mm 3 mps 705 mmHg 18%
    14:00 +42°C° 0 mm 4 mps 705 mmHg 18%
    15:00 +42°C° 0 mm 4 mps 704 mmHg 17%
    16:00 +42°C° 0 mm 4 mps 704 mmHg 17%
    17:00 +41°C° 0.1 mm 4 mps 704 mmHg 19%
    18:00 +38°C° 0.1 mm 4 mps 704 mmHg 21%
    19:00 +36°C° 0.1 mm 4 mps 705 mmHg 23%
    20:00 +35°C° 0.2 mm 4 mps 705 mmHg 25%
    21:00 +34°C° 0.2 mm 4 mps 705 mmHg 26%
    22:00 +34°C° 0.2 mm 4 mps 706 mmHg 28%
    23:00 +33°C° 0.1 mm 3 mps 705 mmHg 30%

    22 January, Sunday

    Time Temperature Precipitation Wind Pressure Humidity
    00:00 +31°C° 0.1 mm 3 mps 705 mmHg 31%
    01:00 +30°C° 0.1 mm 3 mps 705 mmHg 33%
    02:00 +30°C° 0.1 mm 3 mps 704 mmHg 35%
    03:00 +29°C° 0.1 mm 2 mps 704 mmHg 37%
    04:00 +28°C° 0.1 mm 2 mps 704 mmHg 38%
    05:00 +30°C° 0.1 mm 2 mps 705 mmHg 35%
    06:00 +32°C° 0.1 mm 2 mps 705 mmHg 32%
    07:00 +34°C° 0.1 mm 2 mps 706 mmHg 29%
    08:00 +36°C° 0 mm 2 mps 706 mmHg 26%
    09:00 +37°C° 0 mm 2 mps 706 mmHg 24%
    10:00 +38°C° 0 mm 2 mps 706 mmHg 21%
    11:00 +39°C° 0.1 mm 2 mps 705 mmHg 20%
    12:00 +40°C° 0.1 mm 3 mps 705 mmHg 18%
    13:00 +42°C° 0.1 mm 4 mps 705 mmHg 17%
    14:00 +42°C° 0.1 mm 4 mps 704 mmHg 17%
    15:00 +42°C° 0.1 mm 4 mps 704 mmHg 17%
    16:00 +42°C° 0.1 mm 4 mps 704 mmHg 17%
    17:00 +39°C° 0.3 mm 3 mps 704 mmHg 20%
    18:00 +37°C° 0.3 mm 3 mps 704 mmHg 22%
    19:00 +36°C° 0.3 mm 2 mps 705 mmHg 25%
    20:00 +35°C° 0.4 mm 3 mps 705 mmHg 27%
    21:00 +34°C° 0.4 mm 3 mps 706 mmHg 29%
    22:00 +34°C° 0.4 mm 3 mps 706 mmHg 30%
    23:00 +33°C° 0.4 mm 3 mps 706 mmHg 34%

    23 January, Monday

    Time Temperature Precipitation Wind Pressure Humidity
    00:00 +31°C° 0.4 mm 3 mps 706 mmHg 37%
    01:00 +30°C° 0.4 mm 2 mps 705 mmHg 40%
    02:00 +29°C° 0.4 mm 2 mps 705 mmHg 43%
    03:00 +29°C° 0.4 mm 2 mps 705 mmHg 45%
    04:00 +28°C° 0.4 mm 2 mps 705 mmHg 48%
    05:00 +29°C° 0.3 mm 2 mps 706 mmHg 45%
    06:00 +30°C° 0.3 mm 1 mps 706 mmHg 42%
    07:00 +31°C° 0.3 mm 1 mps 707 mmHg 40%
    08:00 +33°C° 0.2 mm 1 mps 706 mmHg 36%
    09:00 +34°C° 0.2 mm 1 mps 706 mmHg 33%
    10:00 +35°C° 0.2 mm 1 mps 706 mmHg 30%
    11:00 +36°C° 0.2 mm 1 mps 706 mmHg 28%
    12:00 +38°C° 0.2 mm 2 mps 705 mmHg 25%
    13:00 +39°C° 0.2 mm 2 mps 705 mmHg 23%
    14:00 +39°C° 0.3 mm 3 mps 704 mmHg 22%
    15:00 +40°C° 0.3 mm 3 mps 704 mmHg 22%
    16:00 +41°C° 0.3 mm 4 mps 703 mmHg 21%
    17:00 +38°C° 0.2 mm 4 mps 704 mmHg 24%
    18:00 +37°C° 0.2 mm 4 mps 704 mmHg 26%
    19:00 +35°C° 0.2 mm 3 mps 704 mmHg 29%
    20:00 +34°C° 0.2 mm 3 mps 705 mmHg 31%
    21:00 +33°C° 0.2 mm 3 mps 705 mmHg 33%
    22:00 +31°C° 0.2 mm 3 mps 705 mmHg 35%
    23:00 +31°C° 0 mm 3 mps 705 mmHg 36%

    24 January, Tuesday

    Time Temperature Precipitation Wind Pressure Humidity
    00:00 +30°C° 0 mm 3 mps 705 mmHg 37%
    01:00 +30°C° 0 mm 2 mps 704 mmHg 39%
    02:00 +29°C° 0 mm 2 mps 705 mmHg 40%
    03:00 +28°C° 0 mm 2 mps 705 mmHg 41%
    04:00 +28°C° 0 mm 2 mps 705 mmHg 43%
    05:00 +29°C° 0.1 mm 2 mps 705 mmHg 39%
    06:00 +31°C° 0.1 mm 2 mps 706 mmHg 36%
    07:00 +32°C° 0.1 mm 2 mps 707 mmHg 32%
    08:00 +35°C° 0 mm 2 mps 706 mmHg 29%
    09:00 +36°C° 0 mm 2 mps 706 mmHg 26%
    10:00 +37°C° 0 mm 2 mps 706 mmHg 23%
    11:00 +38°C° 0.1 mm 2 mps 706 mmHg 22%
    12:00 +39°C° 0.1 mm 2 mps 705 mmHg 20%
    13:00 +40°C° 0.1 mm 2 mps 704 mmHg 19%
    14:00 +40°C° 0.1 mm 2 mps 704 mmHg 18%
    15:00 +40°C° 0.1 mm 2 mps 704 mmHg 18%
    16:00 +41°C° 0.1 mm 2 mps 703 mmHg 18%
    17:00 +39°C° 0 mm 2 mps 704 mmHg 20%
    18:00 +37°C° 0 mm 2 mps 704 mmHg 22%
    19:00 +35°C° 0 mm 3 mps 704 mmHg 25%
    20:00 +35°C° 0.1 mm 3 mps 705 mmHg 26%
    21:00 +34°C° 0.1 mm 2 mps 706 mmHg 27%
    22:00 +32°C° 0.1 mm 2 mps 706 mmHg 29%
    23:00 +33°C° 0.1 mm 3 mps 706 mmHg 31%
    Show more